TimeMDT,TemperatureF,Dew PointF,Humidity,Sea Level PressureIn,VisibilityMPH,Wind Direction,Wind SpeedMPH,Gust SpeedMPH,PrecipitationIn,Events,Conditions,WindDirDegrees,DateUTC
12:53 AM,33.1,19.0,56,29.83,10.0,SE,15.0,-,N/A,,Overcast,130,2013-03-21 06:53:00
1:53 AM,32.0,19.0,59,29.81,10.0,ESE,15.0,-,N/A,,Overcast,120,2013-03-21 07:53:00
2:53 AM,30.9,19.0,61,29.80,10.0,SE,15.0,-,N/A,,Overcast,130,2013-03-21 08:53:00
3:53 AM,30.0,19.0,64,29.76,10.0,SE,16.1,-,N/A,,Mostly Cloudy,130,2013-03-21 09:53:00
4:53 AM,27.0,19.0,72,29.76,10.0,SE,11.5,-,N/A,,Clear,140,2013-03-21 10:53:00
5:53 AM,25.0,18.0,75,29.77,10.0,SE,10.4,-,N/A,,Clear,130,2013-03-21 11:53:00
6:53 AM,24.1,17.1,75,29.78,10.0,SE,11.5,-,N/A,,Clear,130,2013-03-21 12:53:00
7:53 AM,26.1,17.1,69,29.79,10.0,SE,13.8,-,N/A,,Clear,140,2013-03-21 13:53:00
8:53 AM,30.0,17.1,59,29.75,10.0,SE,18.4,24.2,N/A,,Clear,140,2013-03-21 14:53:00
9:53 AM,32.0,18.0,56,29.75,10.0,SE,17.3,-,N/A,,Clear,140,2013-03-21 15:53:00
10:53 AM,37.0,19.9,50,29.73,10.0,SE,16.1,-,N/A,,Clear,140,2013-03-21 16:53:00
11:53 AM,41.0,21.0,45,29.71,10.0,SE,16.1,24.2,N/A,,Clear,130,2013-03-21 17:53:00
12:53 PM,44.1,21.0,40,29.71,10.0,ESE,9.2,-,N/A,,Clear,120,2013-03-21 18:53:00
1:53 PM,45.0,21.0,39,29.69,10.0,SSE,12.7,-,N/A,,Clear,150,2013-03-21 19:53:00
2:53 PM,46.0,21.9,39,29.68,10.0,SSE,13.8,18.4,N/A,,Clear,150,2013-03-21 20:53:00
3:53 PM,46.0,21.9,39,29.68,10.0,SE,16.1,-,N/A,,Overcast,130,2013-03-21 21:53:00
4:53 PM,46.0,21.9,39,29.68,10.0,ESE,15.0,21.9,N/A,,Mostly Cloudy,120,2013-03-21 22:53:00
5:53 PM,45.0,21.9,40,29.75,10.0,SSE,6.9,-,N/A,,Overcast,150,2013-03-21 23:53:00
6:53 PM,39.9,30.0,68,29.80,8.0,SSW,8.1,-,0.00,Rain,Light Rain,210,2013-03-22 00:53:00
7:24 PM,37.4,32.0,81,29.76,10.0,SSW,6.9,-,0.00,Rain,Light Rain,200,2013-03-22 01:24:00
7:42 PM,37.4,32.0,81,29.76,10.0,South,6.9,-,0.00,Rain,Light Rain,190,2013-03-22 01:42:00
7:53 PM,37.0,33.1,86,29.84,7.0,South,8.1,-,0.01,Rain,Light Rain,170,2013-03-22 01:53:00
8:53 PM,36.0,34.0,93,29.86,7.0,SSW,11.5,-,0.04,Rain,Light Rain,210,2013-03-22 02:53:00
9:02 PM,35.6,33.8,93,29.79,6.0,South,10.4,-,0.00,Rain,Light Rain,190,2013-03-22 03:02:00
9:21 PM,35.6,33.8,93,29.78,7.0,South,13.8,-,0.01,,Overcast,170,2013-03-22 03:21:00
9:33 PM,35.6,33.8,93,29.79,6.0,SSE,6.9,-,0.01,,Overcast,150,2013-03-22 03:33:00
9:44 PM,35.6,33.8,93,29.81,6.0,South,9.2,-,0.01,,Overcast,180,2013-03-22 03:44:00
9:53 PM,35.1,34.0,96,29.87,7.0,SSE,8.1,-,0.01,,Overcast,160,2013-03-22 03:53:00
10:53 PM,35.1,33.1,92,29.88,8.0,South,5.8,-,N/A,,Overcast,180,2013-03-22 04:53:00
11:53 PM,35.1,33.1,92,29.88,7.0,WSW,10.4,-,N/A,,Overcast,250,2013-03-22 05:53:00